FW9386 Weather Reports


time (UTC)temp
F
wind
direction
speed
knots
gust
knots
rain 1hr
in
rain 24hr
in
rain mn
in
humidity
%
barometer
mb
20260505101056 72 136 0.0 3.5 0.00 0.00 0.00 86 1009.7
20260505100556 73 140 0.9 3.5 0.00 0.00 0.00 86 1009.8
20260505100059 73 168 0.9 4.3 0.00 0.00 0.00 86 1009.7
20260505095556 73 159 0.0 4.3 0.00 0.00 0.00 86 1009.8
20260505095056 73 151 0.9 4.3 0.00 0.00 0.00 86 1009.8
20260505094555 73 193 0.9 4.3 0.00 0.00 0.00 85 1009.8
20260505094055 73 95 0.9 2.6 0.00 0.00 0.00 85 1009.9
20260505093555 73 0 0.9 2.6 0.00 0.00 0.00 85 1009.9
20260505093056 73 218 0.0 2.6 0.00 0.00 0.00 85 1009.9
20260505092601 73 206 0.0 3.5 0.00 0.00 0.00 85 1009.9
20260505092055 73 0 0.9 3.5 0.00 0.00 0.00 85 1010.1
20260505091552 73 157 0.0 5.2 0.00 0.00 0.00 85 1010.0
20260505091059 73 253 0.9 5.2 0.00 0.00 0.00 85 1010.0
20260505090555 73 231 1.7 4.3 0.00 0.00 0.00 85 1010.0
20260505085555 72 0 0.9 6.1 0.00 0.00 0.00 85 1009.7
20260505085055 72 242 0.9 6.1 0.00 0.00 0.00 85 1009.8
20260505084554 72 117 0.9 7.0 0.00 0.00 0.00 85 1009.8
20260505084056 72 218 1.7 7.0 0.00 0.00 0.00 84 1009.9
20260505083554 72 197 2.6 7.0 0.00 0.00 0.00 85 1009.9
20260505083100 72 70 0.9 4.3 0.00 0.00 0.00 85 1009.9
20260505082554 72 176 0.9 4.3 0.00 0.00 0.00 86 1009.8
20260505082055 72 237 0.9 5.2 0.00 0.00 0.00 86 1010.0
20260505081556 72 145 0.9 5.2 0.00 0.00 0.00 85 1010.0
20260505081058 72 190 0.9 5.2 0.00 0.00 0.00 86 1010.1
20260505080556 72 135 0.9 4.3 0.00 0.00 0.00 85 1010.2
20260505080055 72 214 0.0 4.3 0.00 0.00 0.00 85 1010.2
20260505075554 72 140 0.9 4.3 0.00 0.00 0.00 85 1010.2
20260505075054 71 197 0.9 4.3 0.00 0.00 0.00 86 1010.3
20260505074553 71 144 1.7 5.2 0.00 0.00 0.00 86 1010.2
20260505074054 71 109 0.9 5.2 0.00 0.00 0.00 86 1010.3
20260505073554 71 132 0.9 5.2 0.00 0.00 0.00 86 1010.1
20260505073058 71 163 0.9 4.3 0.00 0.00 0.00 86 1010.2
20260505072558 71 98 0.9 4.3 0.00 0.00 0.00 85 1010.2
20260505072054 71 118 1.7 4.3 0.00 0.00 0.00 85 1010.0
20260505071556 71 124 0.9 3.5 0.00 0.00 0.00 85 1010.3
20260505071055 71 135 1.7 3.5 0.00 0.00 0.00 84 1010.4
20260505070555 71 152 0.9 5.2 0.00 0.00 0.00 84 1010.6
20260505070054 71 145 1.7 5.2 0.00 0.00 0.00 84 1010.6
20260505065555 71 157 1.7 4.3 0.00 0.00 0.00 84 1010.7
20260505065054 71 194 0.9 4.3 0.00 0.00 0.00 84 1010.6
20260505064554 71 147 0.9 5.2 0.00 0.00 0.00 84 1010.7
20260505064054 71 211 1.7 5.2 0.00 0.00 0.00 84 1010.8
20260505063556 71 115 1.7 5.2 0.00 0.00 0.00 83 1010.8
20260505063055 71 109 1.7 3.5 0.00 0.00 0.00 83 1010.8
20260505062554 71 180 0.9 4.3 0.00 0.00 0.00 84 1011.0
20260505062053 71 109 1.7 4.3 0.00 0.00 0.00 83 1011.3
20260505061557 71 109 1.7 5.2 0.00 0.00 0.00 83 1011.2
20260505061054 71 147 0.9 5.2 0.00 0.00 0.00 83 1011.1
20260505060554 71 144 0.9 4.3 0.00 0.00 0.00 83 1011.1
20260505060059 71 174 1.7 4.3 0.00 0.00 0.00 83 1011.0
20260505055554 71 184 1.7 5.2 0.00 0.00 0.00 83 1010.9
20260505055055 71 116 1.7 5.2 0.00 0.00 0.00 83 1011.0
20260505054554 71 155 0.9 3.5 0.00 0.00 0.00 83 1011.2
20260505054054 71 155 0.9 3.5 0.00 0.00 0.00 83 1011.2
20260505053555 71 151 1.7 5.2 0.00 0.00 0.00 82 1011.3
20260505053108 71 145 1.7 5.2 0.00 0.00 0.00 82 1011.2
20260505052557 71 138 2.6 5.2 0.00 0.00 0.00 82 1011.1
20260505052054 71 115 1.7 5.2 0.00 0.00 0.00 82 1011.2
20260505051558 71 126 1.7 7.0 0.00 0.00 0.00 82 1011.3
20260505051055 71 118 1.7 7.0 0.00 0.00 0.00 82 1011.3
20260505050554 71 150 1.7 7.0 0.00 0.00 0.00 82 1011.4
20260505041554 70 112 0.9 3.5 0.00 0.00 0.00 82 1011.8
20260505041054 70 131 1.7 4.3 0.00 0.00 0.00 81 1011.7
20260505040557 70 173 1.7 4.3 0.00 0.00 0.00 81 1011.9
20260505040056 70 117 1.7 4.3 0.00 0.00 0.00 81 1012.0
20260505035554 70 119 1.7 4.3 0.00 0.00 0.00 81 1012.0
20260505035054 70 171 1.7 4.3 0.00 0.00 0.00 81 1012.1
20260505034556 70 147 0.9 4.3 0.00 0.00 0.00 82 1012.0
20260505034054 70 109 1.7 4.3 0.00 0.00 0.00 81 1012.0
20260505033554 70 160 1.7 5.2 0.00 0.00 0.00 81 1011.8
20260505033112 70 133 1.7 5.2 0.00 0.00 0.00 81 1011.7
20260505032554 70 139 1.7 4.3 0.00 0.00 0.00 81 1011.8
20260505032054 70 133 1.7 4.3 0.00 0.00 0.00 81 1011.8
20260505031556 70 173 1.7 4.3 0.00 0.00 0.00 81 1011.8
20260505031058 70 119 1.7 4.3 0.00 0.00 0.00 81 1011.9
20260505030557 70 142 1.7 4.3 0.00 0.00 0.00 80 1012.0
20260505030053 70 114 1.7 5.2 0.00 0.00 0.00 80 1011.9
20260505025554 70 107 1.7 5.2 0.00 0.00 0.00 80 1012.0
20260505025054 70 147 1.7 4.3 0.00 0.00 0.00 80 1012.1
20260505024601 70 154 1.7 6.1 0.00 0.00 0.00 81 1012.1
20260505024054 70 115 1.7 6.1 0.00 0.00 0.00 80 1012.1
20260505023554 70 140 1.7 5.2 0.00 0.00 0.00 80 1011.8
20260505023104 70 129 1.7 5.2 0.00 0.00 0.00 80 1011.9
20260505022554 70 141 0.9 3.5 0.00 0.00 0.00 81 1011.9
20260505022057 70 112 1.7 3.5 0.00 0.00 0.00 81 1011.8
20260505021556 70 157 0.9 3.5 0.00 0.00 0.00 81 1011.8
20260505021054 70 111 1.7 3.5 0.00 0.00 0.00 81 1011.7
20260505020554 70 155 0.9 3.5 0.00 0.00 0.00 81 1011.6
20260505020054 70 127 0.9 3.5 0.00 0.00 0.00 81 1011.6
20260505015555 70 138 0.9 1.7 0.00 0.00 0.00 81 1011.8
20260505015056 70 104 0.9 3.5 0.00 0.00 0.00 81 1011.6
20260505014555 70 166 0.9 3.5 0.00 0.00 0.00 80 1011.5
20260505014055 70 159 0.9 3.5 0.00 0.00 0.00 80 1011.5
20260505013554 70 114 0.9 1.7 0.00 0.00 0.00 80 1011.4
20260505013056 70 126 0.9 1.7 0.00 0.00 0.00 79 1011.6
20260505012554 70 123 0.9 2.6 0.00 0.00 0.00 79 1011.5
20260505012054 71 106 0.9 3.5 0.00 0.00 0.00 78 1011.4
20260505011559 71 121 0.9 3.5 0.00 0.00 0.00 78 1011.3
20260505011055 71 211 0.9 3.5 0.00 0.00 0.00 77 1011.3
20260505010555 71 143 0.9 4.3 0.00 0.00 0.00 76 1011.5
20260505010058 72 210 1.7 4.3 0.00 0.00 0.00 76 1011.5
20260505005555 72 152 1.7 4.3 0.00 0.00 0.00 75 1011.6
20260505005055 72 115 0.9 4.3 0.00 0.00 0.00 74 1011.8
20260505004559 72 115 1.7 4.3 0.00 0.00 0.00 74 1011.7
20260505004057 73 159 0.9 2.6 0.00 0.00 0.00 74 1011.6
20260505003557 73 176 0.0 4.3 0.00 0.00 0.00 73 1011.7
20260505003054 73 114 1.7 4.3 0.00 0.00 0.00 73 1011.7
20260505002554 73 150 1.7 5.2 0.00 0.00 0.00 72 1011.6
20260505002054 73 106 1.7 6.1 0.00 0.00 0.00 72 1011.6
20260505001556 73 119 1.7 7.0 0.00 0.00 0.00 71 1011.6
20260505001056 74 140 2.6 7.0 0.00 0.00 0.00 71 1011.6
20260505000558 74 193 2.6 7.0 0.00 0.00 0.00 70 1011.8
20260505000100 74 204 1.7 6.1 0.00 0.00 0.00 71 1011.7
20260504235555 74 106 2.6 7.0 0.00 0.00 0.00 70 1011.9
20260504235057 75 190 1.7 7.0 0.00 0.00 0.00 69 1012.0
20260504234616 75 228 2.6 7.0 0.00 0.00 0.00 68 1012.1
20260504234054 75 166 1.7 6.1 0.00 0.00 0.00 68 1012.2
20260504233554 75 123 2.6 7.0 0.00 0.00 0.00 67 1012.2
20260504233057 75 149 1.7 7.0 0.00 0.00 0.00 67 1012.2
20260504232556 75 142 3.5 8.7 0.00 0.00 0.00 67 1012.1
20260504232054 76 137 3.5 8.7 0.00 0.00 0.00 66 1012.2
20260504231601 75 126 1.7 8.7 0.00 0.00 0.00 66 1012.3
20260504231054 75 180 2.6 7.0 0.00 0.00 0.00 66 1012.4
20260504230557 76 193 3.5 7.0 0.00 0.00 0.00 64 1012.3
20260504230053 76 165 3.5 7.0 0.00 0.00 0.00 65 1012.3
20260504225555 76 178 2.6 7.0 0.00 0.00 0.00 66 1012.3
20260504225057 76 142 2.6 7.8 0.00 0.00 0.00 65 1012.4
20260504224604 76 143 2.6 7.8 0.00 0.00 0.00 64 1012.5
20260504224056 76 93 1.7 6.1 0.00 0.00 0.00 63 1012.5
20260504223555 77 205 2.6 6.1 0.00 0.00 0.00 63 1012.6
20260504223054 77 270 2.6 7.8 0.00 0.00 0.00 63 1012.6
20260504222555 76 107 1.7 7.8 0.00 0.00 0.00 65 1012.6
20260504222054 76 95 2.6 7.8 0.00 0.00 0.00 64 1012.7
20260504221605 77 114 2.6 7.0 0.00 0.00 0.00 62 1012.7
20260504221054 78 266 2.6 7.0 0.00 0.00 0.00 62 1012.7
20260504220555 77 170 1.7 7.0 0.00 0.00 0.00 63 1012.7
20260504220057 77 148 2.6 7.0 0.00 0.00 0.00 63 1012.7
20260504215556 77 154 2.6 7.8 0.00 0.00 0.00 63 1012.8
20260504215055 77 119 2.6 7.8 0.00 0.00 0.00 63 1012.8
20260504214602 77 119 2.6 6.1 0.00 0.00 0.00 62 1013.0
20260504214054 77 116 1.7 8.7 0.00 0.00 0.00 63 1013.0
20260504213554 78 304 3.5 8.7 0.00 0.00 0.00 63 1013.1
20260504213105 78 147 2.6 7.8 0.00 0.00 0.00 64 1013.2
20260504212554 78 241 2.6 7.0 0.00 0.00 0.00 62 1013.2
20260504212056 78 215 1.7 8.7 0.00 0.00 0.00 62 1013.2
20260504211554 78 167 2.6 8.7 0.00 0.00 0.00 59 1013.3
20260504211054 78 188 2.6 8.7 0.00 0.00 0.00 62 1013.5
20260504210555 78 102 1.7 9.6 0.00 0.00 0.00 62 1013.5
20260504210106 78 144 2.6 9.6 0.00 0.00 0.00 60 1013.5
20260504205558 79 140 2.6 9.6 0.00 0.00 0.00 62 1013.6
20260504205058 78 116 3.5 8.7 0.00 0.00 0.00 62 1013.7
20260504204634 78 121 2.6 7.0 0.00 0.00 0.00 62 1013.6
20260504204054 78 170 3.5 7.0 0.00 0.00 0.00 62 1013.6
20260504203554 78 159 2.6 7.0 0.00 0.00 0.00 62 1013.7
20260504203055 77 98 3.5 8.7 0.00 0.00 0.00 62 1013.8
20260504202553 77 160 1.7 8.7 0.00 0.00 0.00 62 1013.8
20260504202055 77 167 2.6 8.7 0.00 0.00 0.00 62 1013.8
20260504201555 78 100 3.5 8.7 0.00 0.00 0.00 62 1013.8
20260504201054 78 192 3.5 11.3 0.00 0.00 0.00 61 1014.1
20260504200555 78 177 3.5 11.3 0.00 0.00 0.00 62 1014.2
20260504195553 78 204 2.6 7.8 0.00 0.00 0.00 61 1014.5
20260504195058 79 188 2.6 8.7 0.00 0.00 0.00 62 1014.6
20260504194555 78 191 4.3 8.7 0.00 0.00 0.00 60 1014.7
20260504194055 78 114 4.3 7.8 0.00 0.00 0.00 61 1014.8
20260504193558 78 192 2.6 7.8 0.00 0.00 0.00 60 1014.8
20260504193053 78 135 3.5 7.8 0.00 0.00 0.00 60 1014.9
20260504192554 78 193 2.6 8.7 0.00 0.00 0.00 62 1014.9
20260504192054 78 136 2.6 8.7 0.00 0.00 0.00 61 1014.9
20260504191553 78 209 2.6 9.6 0.00 0.00 0.00 61 1014.8
20260504191054 78 142 2.6 9.6 0.00 0.00 0.00 63 1014.9
20260504190554 78 187 3.5 9.6 0.00 0.00 0.00 60 1015.1
20260504190059 77 252 3.5 7.8 0.00 0.00 0.00 62 1015.2
20260504185555 78 160 3.5 7.8 0.00 0.00 0.00 62 1015.2
20260504185055 78 140 3.5 7.8 0.00 0.00 0.00 58 1015.2
20260504184604 78 116 2.6 7.8 0.00 0.00 0.00 61 1015.4
20260504184055 78 255 3.5 7.0 0.00 0.00 0.00 58 1015.5
20260504183554 78 159 2.6 10.4 0.00 0.00 0.00 60 1015.3
20260504183058 78 230 3.5 10.4 0.00 0.00 0.00 60 1015.3
20260504182559 78 151 2.6 8.7 0.00 0.00 0.00 60 1015.4
20260504182054 78 262 3.5 8.7 0.00 0.00 0.00 61 1015.6
20260504181555 77 153 4.3 8.7 0.00 0.00 0.00 59 1015.7
20260504181055 78 145 2.6 8.7 0.00 0.00 0.00 61 1015.7
20260504180557 77 274 2.6 9.6 0.00 0.00 0.00 60 1015.7
20260504180055 77 135 2.6 9.6 0.00 0.00 0.00 59 1015.7
20260504175557 78 232 2.6 8.7 0.00 0.00 0.00 59 1015.8
20260504175054 78 164 2.6 8.7 0.00 0.00 0.00 58 1015.9
20260504174554 78 183 2.6 9.6 0.00 0.00 0.00 60 1015.8
20260504174054 77 88 2.6 9.6 0.00 0.00 0.00 60 1015.9
20260504173555 77 197 3.5 7.8 0.00 0.00 0.00 59 1016.1
20260504173054 78 139 2.6 6.1 0.00 0.00 0.00 58 1016.0
20260504172554 78 251 2.6 7.8 0.00 0.00 0.00 59 1016.1
20260504172055 77 133 2.6 8.7 0.00 0.00 0.00 61 1016.2
20260504171555 77 244 2.6 8.7 0.00 0.00 0.00 60 1016.1
20260504171056 77 267 1.7 7.0 0.00 0.00 0.00 60 1016.2
20260504170555 76 202 2.6 7.8 0.00 0.00 0.00 60 1016.2
20260504151055 75 112 3.5 9.6 0.00 0.00 0.00 62 1016.4
20260504150557 74 197 3.5 7.8 0.00 0.00 0.00 64 1016.5
20260504141100 72 114 3.5 7.0 0.00 0.00 0.00 67 1016.6
20260504140555 72 136 1.7 6.1 0.00 0.00 0.00 68 1016.6
20260504130557 65 0 0.0 0.0 0.00 0.00 0.00 80 1016.5
20260504110555 57 0 0.0 0.9 0.00 0.00 0.00 88 1016.1